2017-008CQ

Last updated on Mon Mar 06 2017 00:15:03 GMT+0000 (Greenwich Mean Time)

1 42034U 17008CQ 17064.48039358 .00002032 00000-0 91720-4 0 9997 2 42034 97.5092 126.0878 0006919 209.8760 150.2124 15.22145140 2750
UTC large
Height (km)
Speed (km/s)
/
Latitude / Longitude
Inclination (degrees)
Orbital Period (minutes)
Azimuth
Elevation
Range (km)
Doppler Factor

Next 0 passes for location: London (51.5072 / 0.1276)

Sorry there are no passes over London.